Theta_e
291 289 287 286 289 289 290 288 287 285 288 287 284 282 283 282 284 283 284 286 286 288 288 286 286 286 289 291 292 293 292 291 291 292 293 293 294 294 294 294 293 292 294 298 297 297 297 296 296 297 300 304 307 310 312 313 314 316 316 316 316 318 319 321 323 322 323 321 322 323 325 325 327 327 329 329 329 329 329 329 330 328 327 326 323 322
293 288 287 288 289 290 288 285 287 287 286 288 285 285 283 284 285 286 288 286 286 289 286 283 285 289 290 292 292 292 290 292 293 293 293 294 294 294 294 294 293 294 293 293 295 295 294 294 295 296 298 301 303 305 309 311 313 314 315 315 316 316 318 321 323 323 323 324 324 323 324 325 325 323 323 326 326 326 327 328 329 329 329 327 325 322
288 288 288 288 286 286 284 285 285 286 285 282 285 283 284 283 282 285 286 287 287 288 285 283 286 290 291 292 293 292 293 294 293 293 295 294 295 295 294 293 292 291 293 293 294 293 293 293 293 296 298 300 303 304 307 310 310 312 313 315 315 316 317 319 321 322 322 323 323 324 322 325 323 323 325 325 323 323 323 323 323 325 327 327 325 324
286 286 289 287 287 289 284 285 286 285 284 283 282 283 282 282 285 286 286 287 286 287 289 286 286 290 291 289 289 292 293 292 290 290 292 293 294 295 295 293 293 293 294 295 296 295 292 291 292 294 298 300 301 302 305 307 310 311 313 313 314 315 316 318 319 319 320 319 316 314 316 318 322 319 316 319 314 319 319 320 319 320 322 323 324 324
287 288 287 286 288 290 287 285 287 286 285 285 284 282 282 284 284 282 285 284 283 284 283 284 286 287 283 285 289 286 282 284 286 286 288 291 292 293 292 292 293 294 295 295 295 294 292 291 293 294 297 299 301 303 305 306 309 310 311 312 313 313 314 316 316 317 315 313 313 311 312 313 313 313 315 315 315 316 316 317 318 320 319 320 322 323
288 288 286 288 287 287 287 285 285 287 283 286 284 284 284 285 285 284 285 284 281 285 282 283 284 278 278 280 282 285 284 287 285 288 290 289 287 286 288 291 292 293 294 294 294 294 292 291 291 293 296 299 301 303 303 306 308 309 310 310 311 312 312 314 314 314 314 315 315 313 314 313 313 314 313 313 316 316 315 317 319 318 318 320 320 320
286 288 287 289 288 286 287 286 286 287 283 284 286 285 284 285 285 285 284 284 281 282 284 281 282 277 280 283 285 284 284 288 289 287 290 289 288 287 288 290 291 291 291 291 291 291 291 292 292 294 296 298 300 302 302 304 306 307 309 310 310 311 311 312 312 312 313 313 314 315 317 318 317 317 317 318 318 319 319 319 318 317 316 317 318 317
287 287 286 287 287 286 285 284 286 287 285 285 284 283 285 286 286 285 284 282 280 280 285 280 278 278 279 285 284 282 284 287 288 290 291 290 287 286 287 288 290 291 290 291 291 291 291 291 293 295 296 298 301 301 301 304 305 307 307 308 309 310 309 309 310 310 313 314 313 313 314 315 316 316 317 315 316 315 315 316 316 316 315 315 316 317
287 286 286 286 285 285 287 285 286 287 285 284 284 285 285 286 283 282 283 281 281 282 282 278 285 281 278 282 282 282 288 286 287 289 289 288 288 287 288 288 287 287 288 289 291 291 292 292 293 295 297 298 298 298 302 304 305 305 305 306 306 307 307 307 308 310 310 313 313 313 313 312 313 313 311 306 309 312 311 313 311 312 314 314 313 315
289 288 288 289 288 286 285 285 284 288 288 285 284 285 283 283 282 282 281 283 280 279 275 280 282 277 279 280 282 281 286 286 289 290 288 287 287 288 289 289 287 286 288 288 289 290 292 294 295 294 297 298 298 297 299 300 301 302 303 304 304 304 305 305 306 308 309 310 310 311 311 312 312 309 306 306 305 305 303 309 309 309 310 312 312 311
288 290 291 288 287 286 286 286 284 286 287 287 285 289 285 282 281 280 279 278 278 275 276 277 278 279 277 281 283 285 285 286 285 285 284 285 288 289 288 289 290 291 291 293 293 292 292 292 293 294 297 296 295 295 298 299 300 300 302 302 304 303 303 303 305 306 307 308 308 310 310 310 310 308 307 304 303 302 302 305 306 306 308 309 310 310
288 288 289 287 286 285 287 287 287 286 286 287 285 282 286 284 280 278 273 276 273 271 273 277 278 278 276 277 282 283 284 283 288 290 289 286 288 289 289 290 292 291 291 292 294 295 294 295 295 295 297 297 296 296 298 298 298 299 300 301 302 300 301 301 302 303 305 306 306 307 307 308 309 308 306 307 307 305 305 305 305 305 305 306 307 307
287 288 286 289 288 288 287 289 286 286 284 286 285 287 281 274 271 275 271 275 273 271 278 278 278 279 280 282 286 285 286 286 284 286 288 287 288 289 288 289 288 289 288 294 295 295 295 295 296 296 295 295 297 298 297 297 297 297 298 300 302 301 299 300 301 302 303 304 305 305 306 306 306 306 306 307 306 306 305 305 305 304 305 305 305 306
284 283 287 289 290 289 289 287 284 285 284 284 286 282 278 272 270 268 266 265 269 273 277 279 279 278 280 282 288 290 290 287 286 285 287 287 288 289 288 287 287 288 287 289 290 293 294 294 294 295 295 295 296 295 296 296 297 297 298 298 301 300 298 299 300 300 301 302 303 303 304 305 305 305 305 306 306 306 305 305 305 305 306 305 305 306
278 280 285 288 287 290 289 287 290 287 286 286 283 286 283 275 270 269 266 273 274 273 274 275 275 275 277 285 285 286 288 286 285 285 285 285 285 286 286 286 287 288 289 288 289 293 295 295 294 294 294 294 294 295 295 295 296 296 297 297 298 298 297 298 299 299 300 301 301 302 302 303 303 304 305 305 305 305 304 304 304 304 305 305 306 306
283 280 284 285 287 286 290 289 287 287 286 284 281 283 281 281 277 270 265 266 264 269 271 274 276 277 282 284 286 286 286 286 286 285 285 287 286 286 287 288 289 289 290 289 291 293 294 293 291 291 293 293 293 293 293 294 294 296 296 296 297 298 297 297 297 299 300 300 300 300 301 302 302 302 302 303 303 304 304 304 304 304 304 304 305 305
280 282 284 284 286 287 289 287 288 288 285 285 284 279 281 281 279 272 269 272 271 269 272 269 277 281 281 284 290 284 283 286 286 285 286 286 285 289 290 289 289 291 291 290 292 293 294 291 290 291 291 292 291 292 294 294 294 296 296 296 296 296 295 296 297 298 298 298 299 299 299 300 300 301 302 303 303 303 303 303 303 303 304 303 303 304
283 281 284 285 287 289 287 286 286 285 286 285 280 283 283 282 282 279 275 267 264 269 272 271 276 278 277 281 282 282 285 287 285 286 286 285 286 289 292 291 292 293 293 290 290 289 290 291 291 291 291 291 292 293 292 293 292 294 295 295 296 295 296 296 295 296 297 297 298 298 298 299 300 301 301 302 302 302 302 301 301 302 302 303 303 303
286 280 284 284 286 288 285 289 289 288 286 284 281 285 285 280 278 277 274 269 267 266 266 269 272 274 277 281 281 284 285 288 287 285 285 287 288 290 291 291 290 290 291 294 294 296 293 293 292 292 292 291 291 291 291 291 291 292 293 294 295 296 295 295 295 295 295 296 297 298 298 298 298 299 299 300 300 300 300 301 301 301 302 302 301 301
286 281 280 286 285 287 287 287 284 286 287 285 286 284 285 281 275 275 277 271 273 267 264 269 268 279 278 280 279 285 283 286 286 283 287 287 287 288 290 292 292 293 294 294 293 293 293 292 291 291 291 292 291 290 289 290 290 292 292 293 293 294 293 293 294 293 295 295 295 296 296 296 297 298 298 299 299 299 299 300 300 301 300 301 301 301
285 282 275 284 285 286 285 285 285 286 283 282 283 282 285 280 282 281 277 275 275 267 265 265 269 273 278 280 282 287 286 285 285 286 285 286 286 287 289 292 292 293 294 294 292 291 291 291 290 289 288 288 288 288 289 289 290 291 291 292 293 294 294 293 293 293 294 294 294 294 295 296 295 296 297 297 297 298 298 299 299 299 300 298 298 298
284 282 279 282 282 283 283 284 284 286 288 287 285 283 287 281 279 276 277 276 268 272 267 263 274 275 280 280 286 286 285 284 284 284 286 286 286 286 287 287 288 290 289 289 289 288 289 289 290 289 288 288 290 291 290 290 290 291 291 290 291 291 292 293 293 293 293 293 293 294 294 294 294 294 294 295 296 296 296 296 297 297 295 296 298 296
285 282 283 278 282 285 285 285 284 284 285 285 285 285 287 284 281 274 275 275 271 274 270 267 267 279 282 281 282 284 281 280 280 282 284 284 284 285 286 287 286 287 288 288 288 287 287 287 288 288 289 289 289 289 288 289 290 290 290 290 290 290 292 291 292 292 292 292 292 293 292 291 291 291 291 292 293 293 294 294 294 293 294 295 296 294
290 282 279 278 279 281 284 285 285 283 286 287 286 283 284 285 282 280 272 275 279 270 271 269 267 279 280 281 280 279 278 280 281 281 283 283 284 288 289 290 288 287 287 286 286 286 288 288 287 289 291 291 290 289 289 289 289 289 289 288 289 290 290 290 290 289 289 290 290 289 289 290 289 289 290 291 292 291 292 292 292 291 291 293 293 293
285 283 284 274 273 278 279 285 285 285 286 282 283 283 282 280 279 278 277 273 273 275 275 276 270 280 284 282 283 282 283 284 285 285 282 285 291 290 289 288 288 289 289 289 289 289 288 289 290 290 289 289 288 288 288 288 288 288 289 289 289 289 288 288 288 289 289 289 289 289 289 289 289 289 289 290 290 290 290 290 290 290 290 291 291 292
288 284 284 278 276 275 273 274 278 282 284 283 278 280 284 286 281 281 278 275 274 272 277 271 275 282 284 283 288 286 284 287 286 285 283 284 288 290 289 288 288 289 290 289 289 289 290 289 288 288 288 288 287 288 288 288 288 288 288 288 287 288 288 288 287 287 287 287 288 288 287 288 288 288 289 289 289 289 289 289 289 289 289 290 291 291
281 282 286 285 283 281 283 285 285 285 283 282 283 283 284 286 284 284 280 276 280 276 277 280 282 284 282 283 284 288 282 287 288 287 288 289 287 286 286 287 288 289 290 291 291 290 288 288 289 288 287 287 287 287 286 287 287 287 287 288 288 287 287 287 287 287 287 287 287 287 288 287 288 288 288 288 288 288 288 289 289 288 289 289 289 290
280 283 284 285 286 286 287 283 283 289 285 286 284 283 284 285 284 284 282 282 282 277 274 281 283 283 285 282 284 286 286 283 286 289 290 289 290 290 289 286 289 287 287 288 289 290 291 290 288 288 288 288 287 286 286 285 286 286 287 288 287 287 287 286 287 288 288 287 287 288 288 287 287 287 288 288 287 288 288 288 288 288 289 288 289 289
283 283 285 283 284 285 282 282 284 285 286 285 285 284 283 284 283 283 284 286 282 282 281 286 285 283 286 286 288 288 288 289 290 291 292 291 288 287 286 288 288 288 288 290 291 290 290 290 289 288 288 287 286 287 286 286 286 286 285 286 286 286 287 286 287 287 287 287 287 287 287 287 287 287 287 287 287 287 287 288 288 288 288 288 288 289
285 280 283 283 284 284 282 282 283 285 283 283 284 284 285 284 284 286 286 287 284 285 287 287 285 284 288 287 290 290 290 290 288 286 286 289 290 288 286 288 288 288 289 290 291 291 290 290 288 288 287 286 286 286 286 285 285 285 286 286 286 286 286 285 287 287 287 287 286 286 286 286 287 287 287 287 287 287 287 287 287 287 287 287 288 288
287 280 286 281 279 281 282 281 282 283 283 281 281 284 284 285 285 286 287 287 286 285 287 287 284 284 289 287 289 290 289 288 288 288 289 290 289 287 288 289 289 289 289 289 289 289 288 287 287 286 286 286 286 286 285 285 285 285 286 286 286 286 286 285 286 286 286 286 286 286 286 286 286 286 286 286 287 287 287 287 287 287 286 287 287 287
286 280 281 280 278 279 280 281 281 280 281 280 280 282 283 283 283 284 285 288 286 284 285 284 283 284 288 287 288 288 288 288 289 290 290 289 288 287 288 289 289 289 289 289 288 287 287 287 287 286 286 286 285 285 285 284 284 284 286 285 285 285 285 285 286 286 286 285 286 286 285 285 285 285 286 286 286 286 286 286 286 286 286 287 287 287
284 282 280 278 279 279 280 281 279 279 278 275 277 282 285 286 287 288 288 288 288 289 285 282 284 291 287 288 287 287 289 290 290 290 290 290 289 288 288 289 290 290 290 289 288 288 288 287 287 286 285 285 285 285 284 284 284 285 285 285 285 284 285 285 285 285 285 285 285 285 285 285 284 285 285 285 285 285 285 285 285 286 286 286 286 286
282 284 282 281 278 275 275 278 279 278 272 276 287 289 288 286 286 285 285 287 288 288 288 290 290 291 286 285 288 289 287 290 292 293 294 294 293 290 289 289 289 289 288 288 289 288 287 285 285 285 285 284 284 284 284 283 284 284 283 284 284 284 285 285 285 285 284 284 284 284 284 284 283 284 284 284 284 284 284 283 284 285 285 285 285 286
284 283 279 275 276 275 272 276 274 272 275 285 288 288 289 290 289 287 288 289 289 289 290 289 289 290 289 289 290 291 291 291 291 291 290 288 290 291 292 290 288 288 289 289 287 286 285 285 285 284 284 284 284 283 283 283 283 283 283 284 284 284 284 284 284 284 284 284 284 283 283 283 283 283 283 283 282 282 282 283 283 283 284 284 285 285
283 283 276 276 273 272 271 272 271 274 282 283 284 285 287 289 288 287 286 288 289 289 289 289 290 291 292 291 289 288 288 287 287 287 289 290 290 292 290 291 290 288 288 289 288 286 285 285 285 284 284 283 283 283 283 283 283 283 283 283 283 283 283 283 283 283 283 283 283 283 283 282 282 282 282 282 281 280 282 282 282 282 284 283 284 284
287 285 281 279 276 278 273 276 276 278 280 281 284 283 285 284 284 284 282 285 289 288 288 290 291 291 292 292 290 284 284 287 289 291 291 291 290 288 291 292 290 289 289 287 287 286 285 285 284 284 283 283 282 282 282 282 283 283 282 282 282 282 282 282 282 282 282 282 282 282 282 282 282 281 281 281 280 280 280 281 281 282 281 282 283 283
286 286 283 283 277 278 273 270 272 273 275 281 286 285 288 288 289 289 287 284 288 289 291 291 290 292 292 291 286 285 286 289 286 290 294 293 290 288 285 285 285 286 286 285 284 284 284 283 283 282 282 282 281 282 282 282 282 282 281 281 281 281 281 280 280 281 281 281 281 282 282 281 281 280 280 279 279 280 280 280 280 280 281 281 282 282
285 285 285 285 282 280 277 276 274 274 278 285 287 285 285 287 288 286 282 281 288 288 290 290 290 291 291 289 284 286 287 285 287 291 295 288 286 286 285 284 285 285 284 284 284 283 283 282 282 282 282 281 281 281 281 281 281 281 280 280 280 280 279 279 280 280 280 280 281 281 281 281 280 279 279 279 279 279 279 280 281 281 280 281 280 281
285 285 285 283 282 283 281 278 276 276 278 283 285 285 285 287 290 287 275 277 289 291 287 288 290 290 290 288 286 287 288 286 288 293 288 286 287 286 286 284 283 283 283 283 283 283 282 282 281 280 280 280 280 280 280 281 280 279 279 279 279 278 278 279 279 280 280 280 280 280 280 278 277 277 277 278 278 278 278 279 279 279 279 280 280 281
283 282 284 282 283 284 284 279 280 280 284 284 281 283 285 291 289 281 277 285 287 287 287 289 289 291 290 288 287 287 289 294 292 286 283 285 284 283 283 283 283 283 282 282 282 282 281 281 280 279 279 279 279 279 279 280 279 278 278 278 277 277 277 278 278 278 279 279 278 278 278 278 277 276 277 276 277 278 277 277 278 278 278 279 280 280
284 285 284 284 283 282 283 281 282 283 284 286 285 286 288 288 279 280 289 285 284 286 288 290 290 290 290 288 288 290 293 287 280 284 284 284 284 282 282 281 281 281 281 281 281 281 280 279 278 278 278 278 278 278 278 278 278 278 277 276 275 275 276 275 276 276 277 277 277 276 276 276 276 275 275 276 275 275 276 276 275 276 277 278 278 278
285 283 282 283 284 284 282 281 281 277 287 289 287 286 287 284 287 287 285 286 285 285 286 286 288 289 289 289 290 291 286 282 284 283 284 283 282 282 281 281 281 280 280 280 280 280 279 278 277 277 277 277 276 277 277 277 277 276 275 274 273 273 273 273 273 274 275 275 275 275 275 275 274 274 273 275 275 273 275 276 276 277 277 277 277 278
288 284 284 285 288 282 282 280 281 287 290 291 292 287 286 290 286 283 287 291 283 281 283 286 286 288 289 290 290 288 284 283 282 283 282 282 282 282 281 280 280 280 279 280 280 279 278 277 276 276 276 276 276 276 276 276 275 275 273 271 271 270 270 270 271 272 273 273 273 273 273 273 272 272 271 273 274 274 274 275 275 276 277 277 277 277
289 288 289 285 289 286 284 287 287 285 285 287 286 285 285 285 281 283 286 285 286 285 282 284 287 285 285 287 286 286 283 283 283 283 282 281 281 280 280 279 279 279 278 278 278 278 277 276 275 275 274 275 275 275 275 275 273 272 270 269 269 267 267 268 269 271 271 271 271 272 272 272 272 271 271 272 273 274 276 275 275 276 277 276 277 277
283 284 284 288 287 289 288 287 286 284 282 282 284 284 284 283 282 282 285 286 283 283 282 284 283 283 283 284 285 282 283 282 282 282 281 281 280 280 279 278 277 277 276 276 276 276 276 276 275 274 273 273 274 274 273 272 270 268 267 267 266 265 265 266 268 269 270 269 270 271 271 270 271 272 271 272 273 273 272 273 275 275 276 276 276 276
284 285 287 285 286 287 285 286 285 284 283 282 283 283 282 282 283 282 282 283 283 283 282 283 282 282 283 283 286 285 283 283 283 282 281 280 279 278 278 277 276 275 275 275 275 275 275 275 274 274 273 272 272 272 272 269 268 267 266 265 264 264 264 265 267 267 268 268 269 270 270 270 272 272 272 272 273 273 273 274 273 273 275 275 275 276
284 286 287 285 286 284 286 286 283 282 283 283 283 284 284 282 282 282 282 282 281 281 281 282 281 281 283 284 285 285 283 284 282 281 280 280 279 278 277 275 274 273 273 274 274 274 274 274 274 273 272 271 271 271 271 268 266 265 264 263 263 262 262 263 265 265 266 266 267 268 270 270 271 270 270 271 271 272 273 273 273 274 274 275 275 275
287 288 285 287 286 286 286 284 283 284 285 285 283 283 284 284 283 282 282 282 282 283 282 281 280 282 282 283 283 283 282 281 281 281 280 279 277 276 275 275 273 272 272 272 272 272 273 273 273 273 271 270 270 270 269 267 265 263 263 262 262 262 261 262 263 264 265 265 266 267 269 269 269 270 270 270 271 271 272 272 273 273 274 274 275 276
286 284 285 285 283 283 285 286 284 285 285 287 284 284 284 283 283 282 281 281 281 281 281 281 280 279 280 281 283 283 282 281 280 280 278 278 276 275 274 273 272 271 271 271 272 272 272 273 272 271 269 269 270 270 268 265 263 262 262 261 261 261 260 261 262 263 264 265 265 266 268 268 269 269 270 270 270 271 271 274 276 277 276 276 278 280
286 285 285 284 285 284 285 286 287 289 288 289 289 285 284 283 283 283 283 282 281 281 281 281 280 279 280 280 280 282 281 280 279 278 276 275 274 274 274 272 271 270 270 271 271 271 271 271 270 269 268 268 269 268 267 264 262 261 261 261 261 261 260 261 261 262 263 264 264 266 267 268 268 269 269 269 269 270 270 271 274 277 278 279 279 280
Wind_Speed
1 6 7 9 9 10 9 5 3 4 6 6 4 5 4 4 1 3 2 2 0 1 4 4 6 6 11 11 10 11 3 5 7 10 10 9 9 9 8 9 9 9 13 5 5 7 6 7 7 6 7 8 8 9 10 11 12 12 11 9 11 9 8 9 9 7 8 8 8 7 9 10 9 9 8 7 6 6 6 6 6 7 7 10 11 11
3 5 8 6 6 8 7 8 9 9 5 7 6 5 2 1 2 1 0 3 4 1 2 2 4 11 12 10 10 7 2 11 11 11 11 12 11 9 8 9 10 10 5 7 8 8 4 7 6 6 6 7 9 10 10 13 13 10 9 11 9 7 9 10 11 9 8 8 9 9 9 8 7 6 7 8 7 8 7 7 6 7 8 9 10 10
2 9 5 5 4 9 6 5 4 7 6 4 6 4 3 5 2 2 1 2 4 1 5 3 3 10 12 10 10 7 10 7 6 8 8 7 10 9 7 8 8 6 9 8 10 5 7 5 6 6 6 7 10 8 12 10 8 9 10 9 9 9 10 9 9 9 9 8 7 7 4 6 4 4 5 6 6 6 6 6 5 4 5 7 8 9
3 5 3 3 7 10 3 4 9 8 7 6 5 4 6 3 4 2 2 1 4 2 2 1 4 10 9 7 11 12 9 6 4 6 10 7 11 14 10 5 7 9 9 12 12 8 3 4 5 5 7 8 7 6 7 8 10 8 9 9 9 9 9 9 9 9 6 5 4 3 3 2 4 3 2 2 1 4 4 6 4 3 4 4 6 7
6 1 0 6 5 10 7 2 7 6 3 1 3 4 4 2 3 2 3 1 0 1 2 1 4 8 4 7 8 4 3 3 5 5 9 10 10 9 7 8 10 13 12 11 10 8 4 5 6 7 7 5 7 7 7 8 9 8 10 9 9 8 9 8 8 9 7 6 5 4 4 4 4 3 3 3 4 5 5 3 5 7 6 4 4 4
2 1 3 6 4 3 6 3 4 8 2 0 4 6 5 5 7 0 2 4 3 1 5 2 3 4 4 7 10 9 8 7 2 3 9 8 5 4 7 10 8 9 9 9 10 7 4 5 6 3 4 7 6 7 6 6 7 8 8 8 8 7 8 9 9 10 9 9 9 7 7 6 5 6 5 7 9 7 7 9 4 3 5 6 5 5
3 0 2 6 7 5 6 5 5 6 5 3 5 5 4 8 8 7 5 3 1 2 2 2 5 6 6 5 5 4 8 12 7 4 11 7 6 5 7 7 8 7 6 6 8 8 7 7 5 5 4 6 7 6 5 6 7 8 8 9 9 9 8 8 8 9 8 8 8 10 10 10 10 10 8 7 5 6 6 5 5 5 4 5 5 5
2 1 4 4 5 5 5 5 4 8 8 5 1 5 8 9 9 6 6 2 1 1 1 4 3 2 6 9 5 6 6 10 10 10 8 2 3 5 6 7 9 8 5 7 7 7 6 6 6 5 5 5 6 6 6 7 7 9 9 9 9 7 7 6 7 9 9 10 9 9 10 9 9 10 9 8 7 4 3 4 5 5 5 5 6 6
3 4 3 5 2 4 8 4 3 6 6 2 1 3 5 7 6 7 6 5 1 1 4 3 1 1 5 8 4 4 2 4 8 9 8 6 3 5 7 9 10 9 8 7 6 5 4 4 6 5 4 5 5 5 6 6 6 6 6 6 6 6 6 7 9 9 9 9 10 10 9 9 8 7 5 3 3 5 4 6 5 5 6 6 6 6
2 3 4 5 8 7 2 1 1 5 4 1 5 7 8 8 7 5 4 5 1 2 5 3 2 3 8 7 6 3 1 7 10 9 8 7 8 8 8 7 7 7 7 6 7 5 4 2 3 4 2 5 3 3 4 4 5 5 6 7 7 6 6 6 7 7 8 8 7 7 8 9 7 5 3 3 3 3 3 6 6 6 5 6 6 6
1 3 3 3 3 2 5 2 0 1 4 10 4 9 7 9 5 4 7 3 3 1 6 3 5 1 5 5 7 3 6 6 3 5 5 6 5 5 4 5 6 5 4 1 1 2 3 2 1 3 6 5 3 3 5 5 5 5 6 6 6 5 4 4 5 5 6 5 5 7 7 8 8 7 6 5 4 3 3 5 5 5 6 5 6 5
1 1 1 0 3 3 3 5 6 3 6 6 4 5 7 5 6 5 5 6 2 5 4 1 0 0 6 6 5 8 5 5 3 2 2 5 6 6 5 5 5 4 4 3 1 1 1 3 4 5 6 6 5 5 5 5 5 6 5 6 7 5 5 5 5 5 4 4 4 4 4 6 6 5 6 8 8 7 7 7 6 5 4 5 5 4
2 3 1 3 2 6 4 10 4 1 4 5 7 8 8 1 4 1 2 2 5 6 1 2 1 1 10 10 6 5 11 7 7 6 5 4 7 6 5 5 6 5 5 2 0 0 1 4 5 5 5 5 4 6 5 5 5 5 6 7 8 6 5 5 5 6 6 5 6 6 5 5 4 5 6 7 7 7 8 7 6 6 6 5 5 6
2 1 1 1 2 3 3 11 2 1 1 5 10 8 7 2 2 3 3 1 6 5 4 1 1 4 5 7 14 18 12 4 7 9 8 6 6 6 6 6 7 6 4 2 1 1 2 4 4 4 6 5 5 4 6 6 6 6 6 6 7 6 5 5 5 6 6 6 6 5 5 4 3 6 5 7 7 7 7 6 7 7 7 6 7 6
6 3 6 6 3 1 1 2 9 7 9 6 1 7 8 8 6 5 4 5 6 5 2 3 2 7 3 2 0 9 6 4 5 5 4 6 7 7 7 8 8 6 2 1 1 1 2 2 3 5 4 5 5 5 5 5 6 6 6 6 5 4 4 6 7 6 7 6 6 5 5 5 4 5 6 7 7 7 7 6 6 6 6 7 7 7
6 3 1 2 2 1 6 1 3 6 6 0 2 4 6 7 5 3 4 3 1 0 1 1 6 4 5 3 8 6 7 7 5 6 3 7 4 4 5 5 4 3 1 1 1 1 1 1 2 4 3 4 3 3 3 4 4 5 5 4 5 6 6 6 6 7 6 6 4 5 6 6 5 5 5 6 6 7 6 6 6 6 7 7 6 6
3 4 2 6 1 2 0 0 1 1 8 4 4 3 3 2 11 7 2 1 1 4 6 2 8 7 8 7 12 1 3 8 1 1 2 5 3 1 3 3 3 3 2 2 2 3 3 3 3 3 4 4 3 3 3 4 4 5 5 6 6 6 6 7 7 6 5 4 5 5 5 5 5 5 7 7 8 8 6 6 6 6 7 6 6 6
10 3 2 2 2 1 0 1 2 5 1 9 2 7 2 2 5 5 3 2 3 3 7 2 8 6 3 8 4 6 5 7 2 4 4 3 2 4 5 5 5 5 4 3 4 5 4 4 6 5 3 4 5 5 5 4 4 4 5 7 7 7 8 7 5 5 5 5 5 5 5 5 6 6 6 6 7 6 6 7 6 6 6 8 7 6
7 3 1 1 0 3 1 0 5 2 3 2 3 3 5 2 2 2 5 1 1 2 5 4 3 6 6 8 4 1 5 7 5 4 2 4 4 7 6 6 5 4 3 3 3 1 1 2 3 4 4 4 4 4 4 3 3 4 4 5 5 6 5 4 4 3 3 3 3 4 5 5 5 5 5 5 5 6 7 8 7 7 7 6 5 5
1 5 1 1 2 1 2 2 9 2 4 2 1 3 0 2 1 4 6 3 5 4 2 7 3 7 8 7 7 6 8 9 5 4 7 7 8 7 7 6 6 6 5 5 3 0 0 0 1 1 3 3 4 4 3 3 3 4 2 2 1 1 1 0 1 2 3 3 4 4 4 4 4 5 5 4 5 6 8 9 8 8 7 7 4 6
4 1 4 1 2 2 3 4 9 11 9 2 2 2 0 2 2 4 2 3 4 5 5 2 5 6 7 8 8 12 8 8 6 7 5 7 7 7 7 7 5 5 5 5 3 1 1 1 1 1 3 3 3 3 4 5 5 4 4 3 1 1 1 1 2 3 3 3 4 4 4 4 4 5 4 4 5 7 8 8 8 7 6 3 6 5
4 2 7 3 2 4 5 1 1 7 5 9 11 11 12 9 5 4 6 3 2 3 4 3 9 6 10 4 11 10 8 6 6 6 8 6 7 7 7 7 5 4 5 4 3 2 3 2 2 1 2 3 6 7 8 7 6 7 7 4 3 1 2 1 1 1 1 0 1 3 3 4 4 4 3 4 6 7 8 8 7 7 4 6 6 5
5 4 9 5 6 5 1 1 1 1 1 2 4 8 7 3 6 5 7 5 3 0 4 2 1 12 7 4 6 5 3 4 3 3 6 6 7 7 9 7 4 6 6 5 3 2 2 2 2 2 5 8 8 7 7 7 7 6 6 6 4 5 5 3 2 2 1 1 1 2 2 2 3 3 4 5 6 7 8 7 7 5 5 6 6 4
5 5 5 2 2 3 2 1 1 0 0 2 5 1 5 9 6 6 3 6 8 2 2 1 1 10 3 1 4 4 4 6 6 5 7 6 6 6 7 5 5 6 7 3 1 1 0 0 1 3 5 7 7 7 7 6 6 6 6 5 5 6 6 5 4 3 3 3 3 3 4 4 3 3 4 5 6 8 8 6 5 4 4 5 4 5
5 4 9 4 3 2 3 2 1 1 1 4 3 4 2 4 6 3 6 1 2 9 8 8 6 10 1 2 1 1 2 5 6 6 6 3 2 2 3 3 3 4 4 3 4 5 3 2 4 4 5 6 6 5 6 6 6 6 5 5 6 6 5 5 5 5 5 4 4 5 5 6 5 4 5 6 7 8 7 5 4 3 5 4 5 5
6 6 10 8 10 9 6 7 10 12 13 3 0 3 7 10 10 6 4 1 4 3 6 5 8 8 1 2 1 1 1 4 3 4 3 5 4 2 3 3 3 6 6 5 6 6 7 5 4 4 4 5 5 5 5 5 5 5 5 5 5 5 6 6 5 5 4 3 2 3 3 4 4 4 6 7 7 6 4 4 3 4 4 4 5 5
3 1 7 12 15 15 15 14 2 10 7 6 9 13 11 8 7 5 5 5 11 5 7 9 10 13 3 3 4 6 4 6 4 3 6 6 6 6 3 3 3 3 6 12 10 7 6 5 5 5 4 5 5 5 5 4 4 5 5 6 6 6 5 4 4 3 3 2 3 1 1 2 3 4 5 6 5 4 4 4 4 4 4 3 4 5
3 4 9 9 13 14 13 5 5 13 12 13 12 10 11 11 11 11 11 13 6 12 6 9 14 13 18 6 8 8 6 5 6 6 6 5 6 6 8 5 3 1 3 3 8 10 10 8 7 6 6 5 4 4 4 3 3 3 4 4 4 3 2 2 3 5 5 5 4 3 1 2 3 4 4 4 4 4 4 4 4 4 4 3 4 5
6 8 8 6 10 10 2 6 6 6 9 9 12 11 12 13 11 15 15 12 10 11 15 19 17 14 20 9 12 10 10 9 11 14 8 4 3 2 2 4 5 6 5 8 11 10 10 11 9 8 7 6 5 4 3 4 3 3 3 2 3 2 2 2 3 5 5 5 4 2 1 1 1 2 3 4 4 4 4 4 4 4 4 4 4 4
3 5 6 6 10 10 3 4 3 8 3 3 9 13 15 15 16 18 17 14 13 13 18 22 11 16 20 9 14 12 10 7 2 1 3 4 8 8 4 6 8 9 9 10 11 12 10 9 9 8 8 6 6 5 4 3 3 2 1 1 2 2 3 2 4 5 5 5 4 2 2 3 4 5 4 5 5 5 4 4 4 4 4 4 4 4
4 4 5 3 4 7 5 3 2 5 7 6 3 7 11 14 16 18 17 17 15 16 18 18 10 12 14 9 10 5 1 2 1 1 6 9 6 7 10 10 9 9 10 8 5 7 8 8 6 6 6 7 6 6 5 4 3 2 3 2 3 4 3 1 4 5 5 6 4 4 4 5 6 5 7 6 6 6 6 6 5 5 4 4 4 4
4 4 2 3 5 6 3 8 5 3 2 2 4 7 10 13 13 14 15 17 15 17 17 9 10 16 13 12 7 5 4 5 8 10 8 7 8 9 10 11 10 10 11 11 7 5 7 9 10 9 8 6 6 6 5 5 5 5 2 4 3 1 2 3 4 5 7 6 5 6 6 6 6 7 6 6 7 7 6 6 6 6 5 5 5 5
8 5 5 4 6 8 3 7 7 5 3 2 5 12 20 20 21 20 18 12 12 16 13 11 18 23 3 8 8 9 11 13 13 11 9 9 8 9 11 11 12 12 11 9 9 10 10 11 10 9 7 5 5 5 5 5 5 5 4 3 1 1 3 3 4 6 7 6 7 7 7 7 7 7 7 7 6 6 6 6 7 7 7 8 6 6
4 8 6 5 7 4 2 7 5 7 8 13 13 20 20 20 20 14 11 15 12 9 12 16 17 10 6 7 13 12 13 14 16 15 14 13 12 9 11 10 10 9 7 8 10 10 8 6 6 6 6 6 6 5 4 4 5 4 2 2 1 3 2 4 6 7 7 7 7 7 6 6 6 7 6 6 6 6 6 5 5 5 5 5 6 6
9 6 6 3 4 4 2 7 5 8 13 10 7 7 16 19 16 18 18 19 19 17 16 15 14 15 9 11 13 13 13 12 8 8 6 5 6 9 12 11 11 10 13 13 11 9 9 9 7 7 6 6 5 5 5 4 3 3 2 2 3 3 4 5 7 7 7 7 6 6 6 6 6 6 5 6 4 4 4 5 5 4 4 4 4 5
9 9 4 1 4 5 3 3 5 10 7 2 1 6 8 9 10 12 16 17 17 16 15 16 18 18 16 13 9 3 4 4 3 5 9 10 9 11 9 11 12 11 12 13 13 12 12 11 11 9 8 5 5 5 4 5 4 4 4 3 3 4 5 6 8 7 6 6 6 5 4 4 4 5 5 5 4 3 4 3 4 4 4 3 4 3
13 6 5 6 3 8 6 9 9 4 7 2 4 3 11 12 11 14 13 18 16 9 11 16 21 21 19 17 6 3 2 2 3 10 10 13 12 10 13 13 8 12 9 6 9 10 7 8 8 7 7 6 5 5 5 4 4 5 5 4 3 4 5 7 7 6 5 5 4 4 4 4 4 4 4 3 4 3 3 4 4 3 2 4 4 4
5 12 6 10 5 7 6 2 1 3 10 10 13 1 1 5 10 14 12 11 6 12 17 19 21 22 20 13 4 5 5 1 6 13 17 15 11 10 4 1 1 4 7 9 8 9 9 8 8 7 8 7 6 3 3 4 5 5 5 5 3 5 6 7 6 5 4 4 4 4 4 4 4 3 3 3 4 4 4 3 3 3 3 3 5 5
2 2 4 12 4 6 4 6 6 8 11 12 13 4 4 7 9 7 5 12 10 12 18 19 19 19 17 9 6 7 6 6 13 15 16 4 7 7 8 4 6 8 9 10 13 13 11 9 9 9 7 6 7 3 3 4 5 5 6 5 5 6 7 7 5 5 5 4 4 4 4 3 3 3 3 4 4 4 5 5 4 4 3 4 3 4
5 4 5 6 5 6 8 8 10 4 5 8 7 5 9 9 14 11 5 10 17 16 8 11 17 19 12 7 11 11 12 12 13 16 1 10 9 8 10 12 11 10 9 9 7 9 11 10 10 8 7 7 5 3 4 4 5 4 6 6 5 8 8 6 6 5 4 4 4 3 4 2 3 3 3 5 5 4 4 4 4 4 4 3 3 4
5 1 5 12 11 10 10 5 2 5 4 6 4 4 9 14 14 10 16 15 4 5 10 14 15 15 13 9 10 10 13 17 8 1 8 8 10 7 6 6 7 8 11 10 10 9 10 8 8 8 7 5 5 4 3 4 6 7 7 6 8 8 6 6 6 6 5 4 3 3 3 4 3 4 4 4 4 5 4 3 3 4 4 5 5 6
5 4 1 4 10 11 10 13 11 5 6 5 1 11 12 9 7 15 8 2 7 6 9 13 15 14 9 10 12 13 14 5 7 6 8 8 9 9 9 10 10 9 7 8 9 10 10 10 10 9 8 6 6 5 3 4 8 8 7 7 8 6 6 6 6 6 4 3 4 5 5 4 4 4 4 4 4 4 3 2 2 3 3 3 5 7
12 10 10 12 7 4 3 6 6 11 8 9 12 2 4 7 8 4 1 1 0 2 5 6 9 9 11 11 14 15 6 5 7 9 8 9 11 12 11 11 12 12 12 12 10 8 10 10 9 8 8 6 5 5 3 6 9 7 7 8 6 5 6 6 5 5 5 5 5 5 5 4 4 4 3 4 4 4 5 5 5 6 4 5 6 7
9 10 5 7 9 11 13 13 11 11 5 9 13 10 7 12 1 1 4 6 3 3 4 6 7 9 10 13 13 10 6 8 5 8 10 8 9 10 9 9 9 9 9 7 8 9 9 11 9 9 7 7 6 5 4 5 8 7 8 7 5 5 5 5 6 6 4 4 4 5 4 5 5 4 4 4 4 4 4 6 5 5 6 6 6 6
7 13 9 13 8 11 8 9 4 1 4 2 0 2 0 1 4 1 0 1 3 4 3 2 6 5 6 7 4 7 6 5 8 9 12 11 10 11 11 10 10 10 10 11 10 8 7 11 11 10 9 7 7 6 6 6 7 8 8 5 5 5 6 6 6 4 3 5 6 6 6 6 5 4 4 4 5 6 7 6 7 7 6 6 6 6
4 1 4 1 4 1 2 1 1 1 2 1 1 0 0 1 2 2 0 2 2 2 3 3 2 1 1 2 7 2 6 8 11 8 9 10 11 9 9 10 8 8 8 9 9 8 8 9 9 10 10 8 7 7 8 8 8 9 6 5 6 6 5 5 5 6 8 7 7 8 7 6 4 3 4 4 4 4 3 5 6 5 6 6 6 6
1 0 2 2 2 6 8 1 1 2 2 1 1 1 2 2 1 0 1 1 3 2 1 1 1 2 4 4 6 8 8 11 11 10 10 10 10 11 10 11 9 8 9 9 8 9 9 9 9 9 9 9 6 6 7 8 8 7 5 5 5 5 6 6 6 7 7 8 8 7 6 6 6 7 6 6 5 4 4 5 4 3 4 4 5 6
2 3 2 2 1 4 2 1 2 3 4 3 3 1 3 2 1 2 3 2 1 1 2 1 2 3 4 5 6 10 10 10 14 13 11 10 10 9 9 9 9 8 6 5 6 4 6 7 9 9 8 8 6 6 7 8 8 6 4 4 6 7 7 7 7 6 7 7 6 6 6 5 8 8 7 8 9 9 9 6 5 5 4 4 5 6
2 4 3 4 5 3 4 3 3 4 5 5 3 5 5 5 6 4 4 4 4 4 3 4 3 1 2 4 5 9 10 6 6 10 11 10 9 8 8 8 8 7 7 7 4 3 5 6 8 8 9 8 6 6 7 7 5 5 7 7 7 7 7 7 7 6 7 6 5 5 5 5 6 7 8 8 8 6 6 7 7 7 7 3 4 4
4 6 3 4 1 2 9 7 5 2 5 1 5 10 9 6 3 4 3 4 4 5 4 6 5 5 5 3 6 9 13 10 9 9 10 9 8 9 9 8 8 7 7 6 5 6 7 7 8 8 8 6 5 5 7 6 6 6 7 7 7 8 8 8 6 5 5 5 5 4 5 6 7 7 8 8 8 9 7 6 9 8 7 7 6 10
8 6 8 7 8 9 5 4 4 1 1 6 3 2 6 5 6 7 8 7 5 5 7 10 8 5 6 5 4 10 10 12 11 10 11 9 8 7 8 8 8 7 8 7 8 8 8 8 8 9 8 6 5 6 7 7 6 6 8 8 9 8 7 6 4 4 3 4 4 5 6 6 6 7 6 7 7 7 9 10 7 9 13 13 11 11
Wind_Direction
128 137 175 187 190 183 193 175 161 177 146 115 77 93 167 152 282 283 280 282 321 109 243 244 282 276 271 263 271 279 287 281 279 279 272 263 262 256 250 243 247 242 244 260 241 245 226 229 228 219 200 205 199 200 195 197 204 202 199 186 204 197 183 188 192 189 185 190 198 217 220 221 218 220 222 220 213 210 208 208 183 179 191 193 193 190
75 147 221 204 191 181 153 121 104 72 61 137 141 144 210 239 142 233 129 352 324 148 290 30 321 275 265 275 266 275 307 267 254 258 263 264 256 254 247 253 245 250 292 290 276 261 254 243 237 215 199 179 183 210 194 203 204 196 186 194 196 175 189 194 195 192 192 196 200 195 203 206 203 198 203 219 214 217 217 216 210 198 189 188 193 194
153 201 224 204 150 94 91 88 74 118 113 56 144 163 129 254 240 303 326 354 341 90 266 16 334 279 276 268 269 250 247 244 224 218 239 244 265 262 250 247 262 277 269 277 262 261 261 258 250 211 207 204 208 190 197 201 179 185 190 196 183 186 189 196 190 185 199 198 196 196 197 199 201 217 207 211 209 207 217 214 202 202 201 188 191 193
194 284 246 142 137 114 56 83 96 76 65 111 95 114 200 240 142 243 270 4 1 83 316 330 328 285 284 273 260 254 234 258 261 254 258 235 249 254 255 260 264 265 263 266 268 265 244 260 252 220 209 210 204 188 186 185 189 185 192 187 183 185 189 190 191 192 189 172 139 112 110 152 161 175 138 143 90 195 201 218 199 204 202 203 189 187
184 267 345 141 150 144 140 128 127 126 144 344 137 136 137 156 232 149 195 119 331 53 63 29 299 296 313 303 299 309 324 298 283 313 277 261 246 265 294 279 243 252 256 264 277 277 281 268 237 212 218 191 194 196 187 183 187 185 186 183 180 177 185 186 182 182 157 134 130 119 80 85 86 69 130 167 210 207 206 216 199 216 199 214 227 191
245 309 146 114 111 82 114 133 188 130 128 39 227 173 191 180 132 42 98 118 24 319 6 49 310 305 306 283 248 281 340 329 269 313 273 260 275 271 257 254 264 252 250 251 261 270 270 255 288 291 212 196 199 197 195 181 178 173 177 174 173 171 179 185 183 172 164 171 168 163 163 165 177 193 179 200 209 204 209 214 202 170 189 211 213 204
198 0 141 158 146 141 142 170 205 148 162 132 252 162 157 145 129 132 142 89 111 151 2 6 185 267 327 310 283 323 324 298 297 232 263 282 273 267 248 261 269 263 283 276 261 265 265 261 254 272 213 197 191 204 176 170 174 172 171 175 175 176 183 179 172 168 166 168 178 185 191 195 198 207 215 214 212 213 215 213 210 206 184 198 200 214
95 77 81 82 108 128 134 192 223 147 127 220 265 128 115 117 135 163 116 110 167 256 272 49 99 190 305 282 274 320 311 299 307 295 276 268 289 278 274 270 268 267 252 271 277 274 253 247 226 231 219 185 190 179 164 167 169 172 174 173 175 170 165 168 163 171 180 180 185 189 199 202 206 210 213 196 208 198 181 189 202 193 197 198 204 209
122 161 162 138 97 132 187 205 194 151 136 224 232 168 129 140 137 118 95 101 117 53 276 335 345 326 253 267 309 346 332 309 300 280 280 304 243 253 273 273 272 271 259 241 260 283 291 236 224 221 207 202 168 160 171 173 171 160 154 150 143 150 157 170 177 178 190 189 185 191 193 204 216 208 204 145 169 191 190 206 210 206 209 205 205 212
343 162 205 159 147 192 224 306 268 160 102 256 133 100 99 88 75 91 97 81 6 72 269 215 15 210 278 274 315 334 268 266 253 265 295 287 307 312 310 299 279 276 272 243 235 261 287 279 243 223 130 124 139 157 130 123 127 128 128 135 143 157 168 170 179 186 191 194 186 194 201 209 211 190 168 143 154 183 169 196 212 213 215 218 220 217
228 326 188 89 188 165 132 36 135 342 128 135 147 86 47 41 31 36 61 84 66 336 253 254 312 156 298 267 228 157 210 205 242 306 278 294 311 317 298 281 295 310 315 354 318 286 285 307 288 109 114 127 77 83 116 118 120 119 125 130 144 158 143 154 172 182 194 200 201 210 209 213 216 199 186 180 207 187 193 214 221 216 220 216 222 217
33 4 75 301 84 111 105 77 27 68 105 128 106 130 85 5 11 29 348 34 122 266 263 279 270 0 190 291 281 237 278 233 200 237 270 298 310 313 319 321 326 329 336 339 10 43 58 78 59 76 99 108 110 98 108 112 106 118 121 134 140 141 151 147 154 166 191 192 221 247 249 240 241 213 200 210 220 205 212 216 221 221 223 227 225 221
49 103 199 6 208 119 137 92 349 346 343 90 97 97 113 222 34 297 7 251 211 204 246 349 171 355 240 231 259 290 263 250 226 219 234 252 291 306 307 321 322 322 334 358 5 60 113 136 134 121 124 123 139 142 137 131 125 125 132 152 156 175 165 161 158 171 186 190 207 206 228 248 261 248 231 228 230 215 210 204 208 202 220 219 224 227
270 278 31 329 35 220 156 125 148 169 298 127 140 142 110 121 102 212 269 291 313 290 269 304 251 262 263 279 245 248 250 209 221 223 229 231 248 275 283 311 322 322 306 301 316 273 200 175 165 155 152 150 151 152 151 146 142 148 148 161 169 179 169 163 166 177 189 205 201 192 200 208 219 249 237 242 236 231 220 205 212 201 205 211 216 216
137 274 247 149 191 155 90 175 173 153 152 209 18 145 173 143 155 199 190 188 212 200 281 278 84 232 124 248 230 226 261 263 256 247 248 252 252 264 286 287 283 281 287 295 324 270 206 173 138 132 138 154 171 168 159 155 150 149 152 154 162 161 189 178 190 181 197 206 204 202 199 196 192 234 244 248 241 244 233 223 217 213 207 210 214 213
208 196 288 309 254 344 162 254 116 104 48 315 168 78 99 214 134 134 205 145 167 140 5 227 217 193 180 275 274 248 279 279 274 275 272 268 261 271 292 274 262 267 282 328 326 284 251 240 136 117 140 157 156 150 127 137 141 146 164 162 179 192 195 198 194 203 199 205 193 204 213 212 199 206 231 255 252 250 242 241 224 225 215 218 221 219
24 223 344 304 45 74 117 277 330 124 171 222 100 196 207 105 99 104 64 21 104 44 256 164 312 285 296 316 275 325 266 266 353 295 231 257 296 320 246 260 257 250 259 263 227 216 154 122 135 188 173 132 87 96 171 195 185 182 166 168 189 202 202 202 202 201 199 193 197 222 221 222 216 214 229 242 257 257 256 247 240 229 228 226 220 225
154 191 0 51 97 9 168 165 112 42 148 99 184 221 178 142 124 127 191 354 65 183 263 95 228 289 21 279 327 331 279 268 226 231 239 276 302 221 224 221 221 211 211 232 247 236 219 189 162 161 186 175 164 166 181 216 205 190 179 180 183 192 204 215 200 201 194 198 212 224 227 230 224 228 235 241 259 265 261 251 243 241 237 232 226 217
119 83 9 351 143 275 17 23 50 27 56 140 199 195 112 200 223 316 94 215 163 260 269 297 284 265 198 245 335 304 205 242 240 207 168 211 236 220 220 232 244 257 264 236 231 175 109 108 81 98 119 150 140 161 163 179 177 180 183 190 182 197 217 205 195 194 211 200 211 211 227 226 233 236 241 239 246 259 251 250 244 237 239 246 228 222
60 139 284 348 135 279 358 104 190 186 342 27 76 84 315 99 151 124 199 173 124 243 63 288 42 246 200 219 197 230 226 221 191 145 196 212 214 218 224 221 216 211 205 200 209 274 304 296 303 170 145 114 110 123 127 114 120 114 158 146 217 313 335 42 156 173 206 213 202 223 221 234 231 239 242 244 253 255 251 253 250 247 246 240 233 232
158 106 161 279 302 90 176 197 209 162 147 63 106 194 90 28 228 99 20 125 182 175 185 221 311 273 254 213 195 223 221 232 190 183 215 224 228 225 224 217 208 211 198 194 189 250 282 302 307 231 179 154 145 135 112 90 87 86 67 86 118 187 203 186 229 189 220 187 190 196 228 246 246 257 246 258 245 249 251 253 248 247 246 256 239 227
97 177 163 141 63 227 242 263 196 175 187 168 164 186 175 128 139 161 247 31 97 115 221 134 255 261 270 180 202 216 233 232 244 164 207 238 236 234 242 244 214 223 241 222 216 222 272 315 330 351 53 89 71 46 40 33 57 53 53 48 43 87 90 90 67 158 210 149 166 212 245 244 246 248 255 250 250 246 251 251 247 246 254 237 248 213
140 121 105 164 208 189 234 345 304 341 14 195 159 220 173 169 102 130 194 230 59 29 99 168 52 267 239 207 218 224 223 234 248 186 225 235 248 249 246 242 223 227 220 216 217 263 273 281 303 345 59 63 64 56 49 41 45 42 36 32 24 43 26 22 346 44 82 119 182 252 257 290 275 277 265 255 253 252 252 252 254 249 243 249 257 240
93 101 82 342 325 315 330 323 62 146 161 300 272 143 153 197 184 170 160 177 152 158 91 351 267 261 294 161 234 239 263 273 267 219 226 246 238 250 260 246 208 213 238 255 222 184 250 290 342 50 53 58 50 49 48 47 48 48 44 33 32 35 4 3 16 10 54 45 19 9 360 337 322 328 290 270 262 258 256 255 262 264 248 261 271 260
161 238 126 126 22 347 345 343 333 351 71 217 204 183 159 79 81 139 106 69 108 212 169 143 227 269 278 317 264 240 323 296 277 260 209 229 267 238 259 263 187 166 143 126 131 139 122 108 98 85 80 78 72 64 59 56 52 53 40 34 31 20 6 11 4 16 24 37 10 355 359 333 335 321 291 271 266 257 260 261 267 266 257 268 268 257
184 164 144 151 168 170 197 194 214 218 210 179 232 143 172 164 147 137 152 115 187 269 144 177 239 252 298 324 329 311 328 293 278 269 248 218 222 238 257 254 198 154 151 147 142 138 147 151 121 99 93 87 77 79 71 61 57 53 46 37 28 27 12 9 11 27 37 36 35 349 342 307 303 273 258 254 251 253 263 278 274 272 266 242 261 265
165 135 197 183 186 202 204 208 208 78 69 172 212 176 188 187 167 133 104 118 208 196 172 227 227 261 252 290 249 250 198 214 203 223 214 222 243 223 220 264 227 190 177 162 161 152 124 128 140 132 116 107 95 77 70 73 52 44 38 26 12 7 356 350 17 46 89 106 130 134 298 275 269 262 256 253 270 296 315 315 305 297 292 279 257 275
85 175 215 204 217 214 212 183 183 159 173 199 169 185 181 169 175 160 172 209 159 94 247 241 233 242 245 203 244 241 245 237 234 219 213 232 227 221 194 183 311 299 256 192 142 155 164 160 153 148 139 120 102 76 65 35 33 31 35 25 350 326 322 341 62 90 96 100 99 93 290 272 268 261 268 292 320 328 324 319 319 313 302 296 290 276
149 197 223 179 234 236 188 152 165 154 181 182 181 168 165 178 163 184 208 213 120 194 220 235 220 226 250 169 214 214 209 207 199 206 210 176 154 250 248 156 188 217 224 208 168 164 164 166 166 162 152 140 119 106 73 50 23 12 7 347 309 275 11 346 107 112 115 122 121 157 215 238 260 294 353 356 356 352 333 321 307 307 306 304 291 278
138 230 208 175 216 238 196 146 184 163 152 127 180 177 179 169 183 196 211 205 183 213 223 241 224 221 241 189 206 215 214 208 230 74 99 156 202 191 209 204 203 211 214 218 182 176 171 163 163 164 153 141 136 125 108 74 60 31 22 284 276 8 10 50 136 131 143 129 118 103 69 33 27 27 27 28 22 11 359 351 343 328 327 313 292 291
156 264 116 117 200 254 224 97 154 187 154 189 203 174 173 181 190 201 208 217 212 233 237 241 257 275 257 183 218 223 156 109 346 282 200 214 195 180 196 210 212 210 222 242 226 183 168 159 159 156 155 153 145 147 141 138 109 93 224 230 18 16 344 218 155 153 120 80 66 54 43 40 28 21 30 16 14 9 9 3 352 347 338 322 305 298
156 242 46 102 177 261 187 171 191 87 73 118 130 158 179 182 198 212 211 214 196 213 233 247 268 256 261 136 197 194 205 190 209 223 226 227 208 201 205 210 210 211 215 219 215 194 178 173 170 170 170 163 157 150 147 146 164 185 131 45 26 314 256 211 172 104 77 70 54 44 38 31 24 27 20 15 11 5 359 354 352 354 350 341 340 331
178 148 155 152 179 235 267 168 135 115 89 299 227 197 193 197 202 207 216 217 206 203 212 208 229 238 188 168 153 206 196 219 223 218 225 238 230 206 210 213 212 214 210 199 200 201 196 185 176 169 161 156 157 150 169 165 148 116 99 130 224 246 210 173 99 82 70 52 46 36 30 22 23 17 12 7 357 352 355 358 355 353 352 346 333 331
151 174 192 172 180 226 44 111 114 106 203 224 213 202 184 197 205 202 212 221 225 185 216 216 232 241 141 196 176 199 201 209 216 224 209 210 215 213 225 227 221 215 211 211 209 200 185 170 165 162 160 159 164 159 146 139 123 144 174 175 218 198 190 106 74 70 62 52 43 32 23 19 16 10 357 348 346 348 347 352 342 329 319 314 324 326
173 181 188 162 159 186 147 112 96 204 234 229 231 166 195 203 189 199 215 216 217 213 227 241 245 252 210 211 209 203 205 218 234 245 262 237 211 218 220 221 220 199 202 205 197 189 182 171 157 150 144 150 149 132 107 94 116 120 97 143 173 200 125 84 81 66 55 50 36 29 20 14 3 351 341 333 335 333 330 330 317 318 312 310 306 307
174 173 145 131 126 56 80 156 201 232 229 300 100 185 200 201 201 198 234 235 226 216 214 232 241 242 244 231 234 196 195 258 313 272 248 247 214 217 217 227 219 194 202 200 184 178 173 172 162 154 152 140 115 110 114 138 138 127 158 182 174 139 95 86 75 66 54 49 33 26 6 7 340 337 329 327 330 328 325 327 316 309 309 302 292 279
172 141 152 203 196 190 180 199 222 333 346 262 228 213 169 183 180 183 217 243 229 196 187 223 237 243 246 246 219 102 96 81 304 276 248 232 226 213 212 226 203 203 199 168 164 160 147 139 138 135 122 117 117 121 140 155 142 147 148 146 130 103 82 71 66 50 43 39 23 11 355 347 337 322 323 319 324 329 324 324 317 299 278 292 291 295
175 174 195 183 227 142 128 218 320 242 246 243 226 264 155 184 176 183 187 254 241 200 206 212 227 235 239 241 115 150 98 203 284 260 249 231 211 205 217 186 122 132 131 136 120 124 127 122 110 108 116 119 114 127 144 151 148 146 140 115 105 82 67 61 50 37 24 18 360 352 341 329 326 317 322 327 329 324 312 297 279 282 298 300 310 313
20 88 169 191 179 155 196 211 207 210 234 233 243 205 186 145 137 118 147 241 251 205 204 208 225 235 236 214 150 135 146 211 245 248 252 155 178 172 149 146 143 143 142 144 145 137 132 126 121 121 113 108 108 97 115 138 142 152 111 93 76 66 60 45 33 17 7 349 338 333 322 312 317 322 330 330 319 314 313 314 314 302 298 292 281 286
160 172 123 194 206 196 189 207 227 210 247 253 232 188 177 138 116 104 175 245 243 231 185 198 216 229 232 195 172 170 185 223 242 255 194 162 163 160 159 155 143 134 123 117 106 115 117 118 113 105 103 100 93 80 99 121 132 117 94 77 67 57 43 26 9 353 341 332 329 317 320 329 343 329 320 310 304 304 296 294 307 313 312 305 288 302
178 219 191 203 201 208 200 238 299 281 266 243 209 176 151 146 130 166 214 230 242 119 174 195 213 218 219 198 146 199 213 219 236 62 119 116 110 95 82 91 108 117 126 124 121 116 111 104 102 100 96 85 70 72 91 135 117 87 77 69 58 46 22 2 349 344 336 326 322 334 348 348 333 313 302 290 292 292 292 286 297 309 326 336 339 343
187 169 212 194 213 205 208 214 227 249 232 179 253 156 159 123 202 210 227 153 142 192 193 191 204 213 208 178 194 210 225 197 99 130 113 129 123 120 116 117 109 97 84 100 113 115 113 108 102 95 79 64 62 66 80 107 92 84 72 62 50 26 2 353 345 332 322 323 341 351 344 328 312 299 293 298 294 294 283 281 300 327 339 344 347 344
185 178 187 195 194 221 210 230 235 247 244 176 119 51 264 192 217 193 172 287 119 230 183 211 200 213 187 209 207 215 184 122 144 138 142 125 134 134 134 131 129 129 131 127 121 118 121 113 105 94 92 74 65 59 69 95 91 83 71 60 35 3 357 346 334 324 332 341 339 333 322 319 316 315 318 309 303 321 341 342 353 350 356 360 353 349
163 197 185 210 182 201 201 207 209 217 221 128 153 213 186 213 64 172 145 240 225 181 197 207 222 209 198 198 209 207 165 133 116 135 127 129 122 126 117 115 114 114 110 104 115 128 119 113 109 104 90 80 69 61 51 79 90 86 73 52 11 356 347 345 345 329 325 327 314 328 335 333 324 316 317 313 324 341 352 355 355 353 4 357 353 344
195 205 180 207 175 205 206 217 230 216 173 212 7 93 237 291 11 137 42 194 208 257 177 191 237 232 205 206 194 162 153 177 149 153 143 147 139 136 136 133 133 132 132 130 132 129 126 124 121 111 96 81 75 66 62 61 82 79 64 26 8 354 356 345 325 306 316 344 338 345 344 337 319 313 318 330 345 1 357 357 2 354 353 350 344 345
6 65 348 133 243 189 344 151 165 40 29 341 50 109 153 2 350 40 77 320 250 232 185 189 320 234 254 179 134 165 156 148 138 141 135 139 139 131 124 121 115 118 116 120 120 124 124 118 112 110 102 86 71 74 73 65 63 65 44 11 9 359 346 336 336 354 3 354 348 350 341 334 318 318 336 348 357 3 355 351 345 343 334 341 335 336
284 153 51 150 303 171 232 132 218 259 292 267 270 239 136 124 147 16 314 214 284 340 239 319 217 184 180 177 172 159 147 153 141 143 142 139 141 142 138 131 126 128 136 130 132 129 130 126 116 111 104 95 80 76 81 76 65 62 42 25 4 356 355 357 12 9 2 356 352 344 342 341 344 345 343 356 355 356 357 346 339 331 326 324 320 319
280 191 99 188 75 196 261 45 273 246 237 245 195 178 198 194 162 173 184 192 149 116 136 183 149 155 161 173 173 152 156 159 150 153 151 148 143 138 133 127 125 112 89 95 110 118 114 118 119 117 108 99 91 87 89 78 64 53 48 30 15 10 11 19 17 5 358 352 345 336 337 339 349 354 352 355 358 350 345 345 340 331 321 322 312 307
160 94 217 160 191 264 298 265 281 317 295 256 226 254 240 199 179 170 167 156 158 119 89 53 48 140 151 160 130 135 134 147 141 144 140 138 134 133 133 127 118 114 116 110 98 89 105 111 106 102 101 98 94 87 92 93 79 55 43 31 20 15 19 18 7 357 355 347 338 333 338 347 357 359 358 350 351 349 325 317 319 311 299 260 236 258
103 186 178 112 105 197 214 222 129 215 261 298 228 220 223 216 159 141 139 134 147 136 132 100 65 53 72 98 138 144 141 136 134 135 132 130 128 121 119 111 109 103 100 95 93 91 89 85 90 98 93 93 100 102 95 82 61 48 43 33 21 19 21 11 1 354 342 335 327 322 340 354 360 4 2 354 344 336 326 318 313 304 298 307 308 299
184 184 145 176 189 224 218 208 191 151 259 241 253 196 188 176 164 163 188 179 186 174 156 136 122 93 93 89 116 130 131 135 131 123 117 114 105 110 116 122 126 124 124 129 118 115 109 106 101 101 103 103 96 84 75 68 52 40 32 29 19 16 8 351 354 340 312 324 323 350 353 353 357 358 356 349 341 335 330 324 336 328 314 308 311 311